Вернуться в каталог

CZ-6A DEB

АктивенSSO
NORAD 54389·DEBRIS·🇨🇳 China

Запущен Nov 11, 2022 с Taiyuan Satellite Launch Center

Loading…

Ближайшие Пролёты (ближайшие 24 часа)

TLE

СвежийSource: Space-Track

Эпоха: Sep 14, 2026, 14:55 UTC

1 54389U 22151DM  26257.62210525  .00000558  00000-0  42292-3 0  9995
2 54389  98.9297 224.2026 0127546 199.0779 160.5582 13.94251525194738

Отслеживайте CZ-6A DEB в реальном времени с AllMySat

Download on the App Store